sat.trackr.live / text

‹ back to catalog

SRMSAT

NORAD 37841 · 2011-058D

PAYLOAD ACTIVE UNKNOWN

§ Identity

Operator
Country
IND
Launch date
2011-10-12
Launch site
SRILR
Launch vehicle
Mass (kg)
RCS (m²)
0.20

Purposes: comms, earth_obs

External: N2YO · Heavens-Above · Gunter

§ Orbital elements

Epoch: 2026-05-25T04:03:07.761312Z

Period
102.01 min
Inclination
19.9704°
Eccentricity
0.0011649
Mean motion
14.11570050 rev/d
Perigee alt
845.6 km
Apogee alt
862.4 km
Semi-major
7,232.1 km
B*
5.8909e-5
RAAN
198.7982°
Arg perigee
311.7443°
Mean anomaly
74.5953°
Rev number
75,456

§ Raw data

SRMSAT1 37841U 11058D   26145.16883983  .00000374  00000+0  58909-4 0  99902 37841  19.9704 198.7982 0011649 311.7443  74.5953 14.11570050754567

JSON: /api/v1/satellites/37841 · /tle

For live sub-satellite position, see the globe view (requires WebGL).

§ Visibility from observer

Set your observer location to see the next 7 days of passes ≥ 10°. The values pass through the URL so the page stays shareable.

No JS? Fill the form by hand. The geolocation button needs JavaScript.

§ Radio — SatNOGS DB

ModeDescriptionDownlinkUplink
CW CW Beacon 437.425 MHz

1 transmitter · refreshed weekly from db.satnogs.org